Location: Asheville, NC
(35.6000°N, 82.5500°W)
Time: 15:00:03
(UTC-05:00)

Vanguard 2 Rocket - Pass Details

Date: 08 December 2017
Orbit: 556 x 3326 km, 32.9° (Epoch: 18 January)

Event Time Altitude Azimuth Distance (km) Brightness Sun altitude
Exits shadow 04:21:45 36° 214° (SW) 3,591 9.5 -37.0°
Drops below altitude 10° 04:31:53 10° 161° (SSE) 4,332 10.6 -34.9°
Sets 04:35:06 0° 152° (SSE) 4,972 11.1 -34.2°
